Regional Weather Roundup
Issued by NWS

Home | Current Version | Previous Version | Text Only | Print | Product List | Glossary On
Versions: 1 2 3 4 5 6 7 8 9 10 11 12 13 14 15 16 17 18 19 20 21 22 23 24 25 26 27 28 29 30 31 32 33 34 35 36 37 38 39 40 41 42 43 44 45 46 47 48 49 50
000
ASUS44 KOUN 262310
RWROK

WEATHER ROUNDUP FOR OKLAHOMA
NATIONAL WEATHER SERVICE NORMAN OK
600 PM CDT WED JUL 26 2017

NOTE: "FAIR" INDICATES FEW OR NO CLOUDS BELOW 12,000 FEET WITH NO
      SIGNIFICANT WEATHER AND/OR OBSTRUCTIONS TO VISIBILITY.

OKZ001>007-009>012-014-015-017-270000-
NORTHWEST OKLAHOMA AND THE PANHANDLE

CITY           SKY/WX    TMP DP  RH WIND       PRES   REMARKS
GAGE           PTSUNNY  100  60  26 S20G26    29.92S HX 100
GUYMON         MOSUNNY  101  59  24 N10       29.95F HX 101
ENID/WOODRING  PTSUNNY  104  63  25 S12G21    29.90S HX 106
$$

OKZ016-021>023-033>039-044-045-270000-
SOUTHWEST OKLAHOMA

CITY           SKY/WX    TMP DP  RH WIND       PRES   REMARKS
LAWTON/REGL    MOSUNNY   99  70  38 S16       29.92F HX 106
LAWTON/FT SILL MOSUNNY   98  74  46 SE18      29.91F HX 109
FREDERICK      CLOUDY   100  65  31 SE15      29.89F HX 103
CLINTON        CLOUDY    97  62  31 S21       29.94F HX  98
HOBART         MOSUNNY  100  63  29 S18       29.93F HX 102
ALTUS AFB      SUNNY    100  64  30 S16G22    29.91F HX 102
$$

OKZ018>020-024>031-270000-
CENTRAL OKLAHOMA

CITY           SKY/WX    TMP DP  RH WIND       PRES   REMARKS
OKLAHOMA CITY  PTSUNNY   97  66  36 S18G26    29.94F HX 100
OKC/WILEY POST MOSUNNY   98  66  34 S20       29.94S HX 101
OKC/TINKER AFB CLOUDY    96  68  39 S20       29.95F HX 101
STILLWATER     CLOUDY    96  66  37 S18       29.92F HX  99
GUTHRIE        CLOUDY    99  68  36 S13G23    29.92F HX 104
$$

OKZ008-013-054>072-270000-
NORTHEAST OKLAHOMA

CITY           SKY/WX    TMP DP  RH WIND       PRES   REMARKS
TULSA          CLOUDY    97  71  42 S17G24    29.93S HX 104
TULSA/JONES    CLOUDY    97  70  41 S14       29.94S HX 103
PONCA CITY     CLOUDY    98  66  34 S9G21     29.91S HX 101
BARTLESVILLE   CLOUDY    97  68  38 S8        29.95R HX 102
MUSKOGEE       CLOUDY    92  76  59 S10       29.97F HX 104
$$

OKZ032-040>043-046>053-073>077-270000-
SOUTH CENTRAL/SOUTHEAST OKLAHOMA

CITY           SKY/WX    TMP DP  RH WIND       PRES   REMARKS
ARDMORE/DWNTWN MOSUNNY   95  64  36 W9G16     29.96F HX  97
MCALESTER      CLOUDY    91  74  57 S8        29.99F HX 100
$$




USA.gov is the U.S. government's official web portal to all federal, state and local government web resources and services.